LEMUR-2-MCCULLAGH

Last updated on Wed Feb 14 2018 16:20:55 GMT+0000 (Coordinated Universal Time)

1 43051U 17071Q 18045.20987246 .00004035 00000-0 11527-3 0 9996 2 43051 51.6391 280.1475 0000757 15.2005 344.9001 15.38345131 10634
UTC large
Height (km)
Speed (km/s)
/
Latitude / Longitude
Inclination (degrees)
Orbital Period (minutes)
Azimuth
Elevation
Range (km)
Doppler Factor

Next 0 passes for location: London (51.5072 / 0.1276)

Sorry there are no passes over London.